TimeCDT,TemperatureF,Dew PointF,Humidity,Sea Level PressureIn,VisibilityMPH,Wind Direction,Wind SpeedMPH,Gust SpeedMPH,PrecipitationIn,Events,Conditions,WindDirDegrees,DateUTC
12:15 AM,46.4,44.6,93,30.13,7.0,Calm,Calm,-,N/A,,Clear,0,2013-04-06 05:15:00
12:35 AM,46.4,44.6,93,30.14,10.0,Calm,Calm,-,N/A,,Clear,0,2013-04-06 05:35:00
12:55 AM,44.6,44.6,100,30.14,7.0,Calm,Calm,-,N/A,,Clear,0,2013-04-06 05:55:00
1:15 AM,44.6,44.6,100,30.14,10.0,Calm,Calm,-,N/A,,Clear,0,2013-04-06 06:15:00
1:35 AM,44.6,44.6,100,30.13,10.0,Calm,Calm,-,N/A,,Clear,0,2013-04-06 06:35:00
1:55 AM,44.6,42.8,93,30.13,10.0,Calm,Calm,-,N/A,,Clear,0,2013-04-06 06:55:00
2:15 AM,44.6,42.8,93,30.13,10.0,Calm,Calm,-,N/A,,Clear,0,2013-04-06 07:15:00
2:35 AM,44.6,42.8,93,30.13,10.0,Calm,Calm,-,N/A,,Clear,0,2013-04-06 07:35:00
2:55 AM,44.6,42.8,93,30.12,10.0,Calm,Calm,-,N/A,,Clear,0,2013-04-06 07:55:00
3:15 AM,42.8,41.0,93,30.12,10.0,Calm,Calm,-,N/A,,Clear,0,2013-04-06 08:15:00
3:35 AM,42.8,41.0,93,30.11,10.0,Calm,Calm,-,N/A,,Clear,0,2013-04-06 08:35:00
3:55 AM,42.8,41.0,93,30.10,10.0,Calm,Calm,-,N/A,,Clear,0,2013-04-06 08:55:00
4:15 AM,42.8,41.0,93,30.10,10.0,Calm,Calm,-,N/A,,Clear,0,2013-04-06 09:15:00
4:35 AM,42.8,41.0,93,30.10,10.0,Calm,Calm,-,N/A,,Clear,0,2013-04-06 09:35:00
4:55 AM,42.8,41.0,93,30.10,10.0,Calm,Calm,-,N/A,,Clear,0,2013-04-06 09:55:00
5:15 AM,42.8,41.0,93,30.10,10.0,Calm,Calm,-,N/A,,Clear,0,2013-04-06 10:15:00
5:35 AM,42.8,41.0,93,30.09,10.0,Calm,Calm,-,N/A,,Clear,0,2013-04-06 10:35:00
5:55 AM,42.8,41.0,93,30.09,10.0,Calm,Calm,-,N/A,,Clear,0,2013-04-06 10:55:00
6:15 AM,42.8,41.0,93,30.09,10.0,Calm,Calm,-,N/A,,Clear,0,2013-04-06 11:15:00
6:35 AM,42.8,41.0,93,30.08,10.0,Calm,Calm,-,N/A,,Clear,0,2013-04-06 11:35:00
6:55 AM,42.8,41.0,93,30.08,10.0,Calm,Calm,-,N/A,,Clear,0,2013-04-06 11:55:00
7:15 AM,42.8,41.0,93,30.09,10.0,Calm,Calm,-,N/A,,Clear,0,2013-04-06 12:15:00
7:35 AM,46.4,44.6,93,30.10,10.0,Calm,Calm,-,N/A,,Clear,0,2013-04-06 12:35:00
7:55 AM,48.2,46.4,93,30.10,10.0,Calm,Calm,-,N/A,,Clear,0,2013-04-06 12:55:00
8:15 AM,50.0,48.2,94,30.11,10.0,Calm,Calm,-,N/A,,Clear,0,2013-04-06 13:15:00
8:35 AM,51.8,50.0,94,30.12,10.0,Calm,Calm,-,N/A,,Clear,0,2013-04-06 13:35:00
8:55 AM,55.4,50.0,82,30.12,10.0,SE,3.5,-,N/A,,Clear,130,2013-04-06 13:55:00
9:15 AM,59.0,50.0,72,30.13,10.0,SE,3.5,-,N/A,,Clear,140,2013-04-06 14:15:00
9:35 AM,60.8,50.0,68,30.13,10.0,SSE,6.9,-,N/A,,Clear,160,2013-04-06 14:35:00
9:55 AM,60.8,50.0,68,30.13,10.0,SE,6.9,-,N/A,,Clear,140,2013-04-06 14:55:00
10:15 AM,64.4,51.8,64,30.13,10.0,SSE,4.6,-,N/A,,Clear,150,2013-04-06 15:15:00
10:35 AM,66.2,50.0,56,30.13,10.0,South,8.1,-,N/A,,Clear,170,2013-04-06 15:35:00
10:55 AM,66.2,50.0,56,30.13,10.0,SSE,6.9,-,N/A,,Clear,160,2013-04-06 15:55:00
11:15 AM,68.0,50.0,52,30.14,10.0,SSE,11.5,17.3,N/A,,Clear,160,2013-04-06 16:15:00
11:35 AM,66.2,48.2,52,30.14,10.0,South,11.5,18.4,N/A,,Clear,180,2013-04-06 16:35:00
11:55 AM,68.0,48.2,49,30.13,10.0,South,10.4,19.6,N/A,,Clear,170,2013-04-06 16:55:00
12:15 PM,69.8,50.0,49,30.13,10.0,South,9.2,16.1,N/A,,Clear,170,2013-04-06 17:15:00
12:35 PM,68.0,50.0,52,30.13,10.0,South,10.4,-,N/A,,Clear,170,2013-04-06 17:35:00
12:55 PM,69.8,51.8,53,30.13,10.0,SSW,13.8,21.9,N/A,,Scattered Clouds,200,2013-04-06 17:55:00
1:15 PM,69.8,51.8,53,30.11,10.0,SSE,10.4,17.3,N/A,,Mostly Cloudy,160,2013-04-06 18:15:00
1:35 PM,69.8,51.8,53,30.11,10.0,SSW,15.0,20.7,N/A,,Mostly Cloudy,210,2013-04-06 18:35:00
1:55 PM,71.6,53.6,53,30.09,10.0,South,12.7,17.3,N/A,,Scattered Clouds,180,2013-04-06 18:55:00
2:15 PM,69.8,53.6,56,30.08,10.0,SSW,13.8,20.7,N/A,,Scattered Clouds,210,2013-04-06 19:15:00
2:35 PM,69.8,51.8,53,30.07,10.0,South,13.8,20.7,N/A,,Unknown,190,2013-04-06 19:35:00
2:55 PM,69.8,51.8,53,30.06,10.0,South,15.0,19.6,N/A,,Unknown,190,2013-04-06 19:55:00
3:15 PM,69.8,51.8,53,30.06,10.0,South,9.2,18.4,N/A,,Unknown,180,2013-04-06 20:15:00
3:35 PM,69.8,51.8,53,30.06,10.0,SSE,11.5,18.4,N/A,,Unknown,160,2013-04-06 20:35:00
3:55 PM,71.6,51.8,50,30.05,10.0,South,10.4,16.1,N/A,,Unknown,180,2013-04-06 20:55:00
4:15 PM,69.8,51.8,53,30.03,10.0,South,10.4,20.7,N/A,,Unknown,190,2013-04-06 21:15:00
4:35 PM,69.8,51.8,53,30.03,10.0,South,11.5,18.4,N/A,,Unknown,190,2013-04-06 21:35:00
4:55 PM,68.0,51.8,56,30.03,10.0,South,9.2,-,N/A,,Unknown,180,2013-04-06 21:55:00
5:15 PM,71.6,51.8,50,30.03,10.0,SSE,9.2,-,N/A,,Unknown,160,2013-04-06 22:15:00
5:55 PM,68.0,51.8,56,30.02,10.0,South,6.9,-,N/A,,Unknown,190,2013-04-06 22:55:00
6:15 PM,68.0,53.6,60,30.02,10.0,South,9.2,-,N/A,,Scattered Clouds,180,2013-04-06 23:15:00
6:35 PM,66.2,53.6,64,30.02,10.0,South,6.9,-,N/A,,Scattered Clouds,170,2013-04-06 23:35:00
6:55 PM,66.2,53.6,64,30.02,10.0,South,6.9,-,N/A,,Scattered Clouds,180,2013-04-06 23:55:00
7:15 PM,64.4,51.8,64,30.02,10.0,South,5.8,-,N/A,,Mostly Cloudy,180,2013-04-07 00:15:00
7:35 PM,64.4,53.6,68,30.02,10.0,SSE,3.5,-,N/A,,Mostly Cloudy,160,2013-04-07 00:35:00
7:55 PM,62.6,55.4,77,30.02,10.0,Calm,Calm,-,N/A,,Mostly Cloudy,0,2013-04-07 00:55:00
8:15 PM,60.8,55.4,82,30.02,10.0,SSE,3.5,-,N/A,,Mostly Cloudy,150,2013-04-07 01:15:00
8:35 PM,60.8,55.4,82,30.03,10.0,Calm,Calm,-,N/A,,Scattered Clouds,0,2013-04-07 01:35:00
8:55 PM,59.0,53.6,82,30.02,10.0,SSE,3.5,-,N/A,,Clear,150,2013-04-07 01:55:00
9:15 PM,59.0,53.6,82,30.03,10.0,Calm,Calm,-,N/A,,Clear,0,2013-04-07 02:15:00
9:35 PM,59.0,53.6,82,30.03,10.0,Calm,Calm,-,N/A,,Clear,0,2013-04-07 02:35:00
9:55 PM,57.2,53.6,88,30.03,10.0,Calm,Calm,-,N/A,,Clear,0,2013-04-07 02:55:00
10:15 PM,57.2,53.6,88,30.03,10.0,Calm,Calm,-,N/A,,Clear,0,2013-04-07 03:15:00
10:35 PM,55.4,53.6,94,30.04,10.0,Calm,Calm,-,N/A,,Clear,0,2013-04-07 03:35:00
10:55 PM,55.4,51.8,88,30.04,10.0,Calm,Calm,-,N/A,,Clear,0,2013-04-07 03:55:00
11:15 PM,55.4,53.6,94,30.04,10.0,Calm,Calm,-,N/A,,Clear,0,2013-04-07 04:15:00
11:35 PM,53.6,51.8,94,30.04,10.0,Calm,Calm,-,N/A,,Clear,0,2013-04-07 04:35:00
11:55 PM,53.6,51.8,94,30.03,7.0,Calm,Calm,-,N/A,,Scattered Clouds,0,2013-04-07 04:55:00